CZ-2C DEB

基本信息
目录编号:
40290
目录名称:
CZ-2C DEB
国际标识:
2014-066E
轨道中心:
EARTH
物体状态:
在轨
发射日期:
2014-10-27 UTC
轨道信息
数据来源: 国际轨道数据
星历时间: 2026-09-14T12:35:13+0800
半长轴: 6936.213km
偏心率: 0.0035757
轨道倾角: 97.960°
近地点辐角: 249.981°
升交点赤经: 236.826°
平近点角: 109.756°
近地点: 533.274km
远地点: 582.878km
周期: 95.817分钟
每日圈数: 15.028624
详细信息
发射场:
JSC
轨道高度:
LEO
数据来源:
AOE Integration Group
参考系:
TEME
时间系统:
UTC
历元类型:
SGP4
2D轨道图
3D轨道图
轨道高度分析图
轨道倾角分析图
轨道综合分析图
查看轨道综合分析图